RH
22 31 42 43 51 58 61 68 64 64 64 54 56 59 57 56 52 51 57 63 47 38 52 53 50 50 41 38 36 31 36 42 43 44 44 42 41 44 48 50 51 49 36 29 36 43 50 57 62 68 77 87 90 86 83 81 79 77 77 77 80 89 85 74 72 73 73 74 74 73 67 59 55 51 45 40 36 32 26 20 15 13 14 16 17 18
25 32 51 55 62 66 59 60 55 49 51 52 52 51 55 59 54 49 55 62 48 37 50 52 46 42 32 28 24 24 36 42 41 43 42 41 40 40 42 42 42 40 34 38 43 43 49 55 60 65 69 77 84 85 84 84 82 82 80 79 84 89 85 76 71 68 65 60 57 55 50 46 45 43 38 33 29 26 22 16 12 12 14 16 17 18
38 37 57 66 63 57 51 50 49 49 47 51 53 47 50 58 53 50 53 58 48 35 43 46 35 25 20 19 15 17 26 26 26 30 31 34 37 38 38 37 38 40 40 41 39 39 43 47 54 61 64 66 70 72 72 75 80 84 85 85 87 86 79 72 67 63 57 51 48 45 42 40 40 37 33 31 28 25 21 15 13 14 16 17 18 19
39 46 55 54 48 43 45 47 47 50 51 52 49 42 49 51 41 40 45 49 47 40 42 42 34 25 18 19 21 20 21 20 19 21 21 25 30 30 29 30 35 38 38 37 35 35 38 42 48 54 58 63 69 72 72 74 79 81 81 81 80 77 71 66 61 56 51 48 47 45 43 42 40 37 34 33 30 26 22 17 15 16 17 18 19 22
39 47 42 41 49 47 44 48 45 38 46 62 58 45 47 44 31 33 42 45 40 41 45 36 27 27 24 26 27 20 22 24 22 23 22 22 23 23 25 27 30 32 31 32 32 32 33 36 39 41 45 54 64 69 69 69 70 68 66 66 66 66 63 59 55 51 48 47 47 46 47 47 45 42 39 34 27 21 18 16 16 16 17 19 22 24
41 44 35 38 49 49 42 47 52 41 39 52 55 48 44 39 29 32 42 36 19 22 33 27 18 24 29 26 19 13 19 23 21 24 25 21 22 24 27 27 27 29 29 30 30 29 30 30 31 33 35 41 49 52 55 56 57 57 56 57 60 61 58 54 50 47 45 44 43 43 43 43 42 37 30 23 16 13 13 14 15 17 19 22 24 24
39 39 42 45 47 49 45 48 58 49 33 31 42 52 50 40 28 30 36 25 15 17 25 28 21 22 24 14 12 20 26 29 25 27 26 20 21 24 24 22 23 26 26 28 30 29 29 28 29 32 32 34 34 35 41 48 52 55 55 54 56 56 53 51 47 43 42 41 40 39 37 36 33 25 15 10 9 11 13 14 17 20 23 25 24 21
40 34 44 50 46 48 46 49 56 46 35 37 45 49 43 30 23 33 35 27 33 33 32 41 28 25 33 19 21 35 31 29 27 25 26 23 20 18 16 16 17 19 20 23 26 26 28 29 30 29 29 30 28 29 36 42 46 49 50 50 50 50 48 46 43 39 37 37 35 35 35 33 28 18 10 8 10 12 15 17 20 23 25 26 23 18
42 33 42 49 45 45 49 56 55 37 28 37 48 48 38 27 32 50 50 47 55 38 32 51 37 30 44 31 29 36 24 21 24 21 23 22 19 17 14 13 13 14 16 19 21 22 24 26 26 26 26 27 28 30 33 34 37 40 43 45 45 46 44 40 37 33 31 31 31 31 31 29 22 14 11 11 13 14 17 19 21 24 27 27 22 19
37 37 44 48 42 42 53 62 54 34 23 33 51 57 55 58 62 61 55 54 57 38 26 42 38 29 37 31 24 23 20 22 24 25 28 24 17 14 12 11 10 12 15 17 18 19 20 21 21 23 25 27 28 29 29 30 33 37 40 42 41 39 36 33 30 27 27 28 28 28 25 21 15 11 12 14 16 18 19 21 21 25 29 27 22 20
44 44 46 42 35 39 52 56 47 39 36 40 50 43 40 63 72 64 66 56 44 44 38 38 38 29 29 31 21 17 30 36 27 23 28 26 16 9 8 8 8 11 12 14 16 17 19 21 21 24 25 26 27 28 30 31 32 34 36 37 36 31 29 27 24 24 25 25 25 23 18 15 11 10 13 15 18 19 20 21 21 25 30 26 22 23
51 45 47 40 35 37 40 42 42 49 51 41 42 33 18 40 55 55 70 60 39 47 49 43 43 34 29 30 20 19 33 39 32 22 21 23 15 5 5 7 6 8 10 13 16 17 19 22 24 26 25 26 27 29 30 29 30 32 33 34 33 29 25 23 22 22 23 23 22 18 13 12 11 11 14 15 16 18 18 19 21 27 31 26 23 26
39 47 55 42 35 34 28 29 32 47 55 35 33 41 29 30 34 37 55 54 44 49 44 36 38 35 31 23 15 18 22 27 34 28 19 19 14 6 5 6 5 7 9 11 14 16 19 21 22 23 23 25 27 28 28 28 29 30 31 32 32 27 20 18 20 23 23 22 18 14 12 11 11 13 14 15 16 17 18 19 23 29 28 23 23 25
26 46 56 38 31 33 24 16 14 30 43 24 20 37 37 28 19 28 47 41 36 45 36 25 27 31 28 20 19 19 13 15 22 20 16 13 10 7 6 5 5 6 7 9 11 14 18 18 19 20 21 23 25 25 27 28 29 30 30 31 30 27 20 16 19 22 23 20 15 12 11 11 12 14 14 15 16 17 18 20 25 30 26 22 23 24
17 30 41 35 32 32 24 17 22 34 38 31 30 30 34 38 26 28 45 36 32 47 41 22 24 35 31 26 31 25 15 15 12 10 12 9 8 7 5 6 6 5 5 6 8 11 13 14 16 18 20 21 23 23 26 28 29 30 30 29 29 27 21 16 16 19 21 19 15 13 12 12 13 13 14 15 16 18 20 23 29 30 24 22 25 27
13 18 34 41 37 36 31 28 33 32 27 33 37 24 28 42 30 26 45 45 34 41 43 31 32 40 29 19 24 20 15 17 13 12 13 9 9 9 7 8 6 6 5 4 6 9 11 13 15 19 21 22 23 24 25 27 28 29 29 29 29 28 24 17 14 17 18 17 17 15 14 14 14 15 16 16 18 21 23 29 32 28 24 25 27 30
9 14 37 46 40 40 38 33 32 24 16 23 29 28 37 38 21 23 41 44 32 29 34 31 26 26 19 15 16 12 12 18 20 22 21 16 15 13 11 9 6 7 6 5 8 10 11 14 15 18 21 23 25 26 26 26 26 28 29 30 30 30 28 21 15 15 17 18 18 17 16 17 17 17 18 18 20 24 28 33 33 27 26 28 29 30
21 15 32 44 36 38 42 37 36 31 22 24 28 32 35 30 28 37 39 34 32 33 37 35 27 23 22 22 20 15 16 23 28 32 30 22 18 15 11 7 7 9 8 8 11 11 12 13 13 15 19 23 27 28 29 29 29 30 31 32 32 32 30 25 19 16 17 19 18 18 19 20 21 21 22 23 25 28 33 35 31 27 27 28 29 32
33 17 27 44 40 42 44 37 35 34 27 27 32 31 27 31 40 43 36 33 34 35 43 49 42 36 32 24 20 19 21 26 30 35 35 29 23 17 11 8 9 11 11 12 12 13 13 11 12 13 15 21 26 29 32 32 32 33 33 34 34 34 33 29 25 21 20 21 21 21 23 24 27 28 28 30 32 35 38 35 29 27 28 29 31 33
30 19 25 39 44 43 38 33 35 38 36 33 34 34 32 36 42 39 38 46 42 29 35 42 36 38 39 28 21 23 26 28 30 32 37 40 32 20 14 13 12 12 13 14 14 14 13 11 12 12 13 19 24 30 34 35 36 36 35 36 36 36 36 34 32 28 26 26 27 28 31 33 35 36 36 38 39 41 40 34 30 29 30 32 33 35
21 18 26 32 37 36 30 31 33 31 37 42 43 43 37 30 36 40 40 48 44 31 37 41 30 32 39 31 23 25 30 34 34 35 40 41 29 18 19 18 15 15 15 14 15 15 14 14 14 13 14 17 23 29 33 36 38 39 38 39 38 38 38 37 37 35 33 33 34 35 37 39 41 42 43 44 45 44 39 33 32 32 33 34 35 36
21 19 28 28 26 26 23 26 29 24 27 37 40 41 37 30 35 39 36 41 40 35 46 47 30 26 36 36 30 28 34 39 39 40 40 33 26 23 25 24 21 21 18 17 17 16 16 17 16 17 17 18 21 25 30 35 38 41 42 42 42 42 43 42 42 41 41 41 41 42 43 44 45 46 48 49 48 44 38 35 35 35 35 36 36 37
29 24 27 23 17 17 17 24 34 32 27 31 32 30 32 36 37 31 29 40 43 39 44 44 35 32 35 39 39 36 39 40 36 38 38 33 31 32 31 29 28 27 24 23 22 20 20 19 18 19 19 19 21 23 27 32 35 39 44 46 47 47 47 47 48 48 48 48 48 48 49 50 51 52 53 52 48 42 38 38 38 38 38 38 38 37
26 27 26 28 25 15 19 32 38 35 30 30 34 33 33 36 34 30 37 51 52 43 42 43 39 33 32 42 49 44 43 41 37 38 38 36 36 36 36 35 33 32 31 30 28 27 27 27 25 25 23 22 23 22 25 28 31 36 42 45 49 50 51 52 53 53 54 54 55 55 56 57 58 58 57 52 46 41 40 40 40 40 39 40 39 36
27 31 25 31 35 22 24 34 33 36 38 34 37 39 34 34 35 36 43 50 47 37 37 45 41 28 33 52 55 48 49 49 44 41 40 40 41 40 39 39 39 43 44 42 40 37 36 36 36 35 34 33 31 29 29 28 30 34 38 42 46 49 53 55 57 59 59 59 61 61 63 64 64 63 58 50 44 41 42 42 42 41 40 41 39 34
29 39 26 27 39 34 30 29 28 39 41 35 39 39 36 42 44 42 42 44 44 36 33 42 38 25 38 62 61 55 59 59 53 47 45 46 45 43 45 48 53 60 61 60 58 55 52 50 46 43 41 40 40 41 40 38 38 38 39 43 46 48 53 55 57 61 63 65 66 66 67 67 66 63 55 47 44 43 43 43 42 42 42 41 37 31
34 48 34 25 32 32 27 22 25 35 33 28 36 38 39 44 44 49 55 51 47 44 41 41 36 36 60 79 73 66 68 67 63 55 52 54 51 51 59 65 69 73 73 70 68 69 67 61 57 53 48 45 44 44 46 47 46 46 44 44 45 48 50 52 55 59 62 66 68 68 68 67 63 58 50 45 45 44 45 45 44 44 44 40 33 28
36 43 37 33 32 27 25 23 25 32 29 27 35 39 42 45 44 51 58 49 44 50 52 39 32 51 80 85 77 76 74 73 70 62 59 60 58 64 74 76 75 76 75 73 75 79 79 73 71 67 59 56 54 49 47 47 46 48 48 47 47 49 49 50 53 57 60 64 66 67 67 64 59 53 47 46 46 46 46 46 45 46 43 37 30 24
45 45 41 41 38 33 31 29 29 32 32 33 39 45 47 49 53 58 57 51 50 56 60 51 47 67 83 79 75 77 74 73 72 67 65 67 69 77 82 79 77 79 79 81 85 89 87 82 81 78 69 64 62 58 53 48 45 44 45 47 49 50 51 53 54 55 57 59 61 62 63 61 55 49 47 47 47 48 48 47 47 47 42 34 27 22
51 56 56 48 43 42 38 37 40 41 42 46 54 64 61 51 57 72 76 73 69 69 71 71 73 77 73 72 76 72 70 74 72 67 70 74 79 85 85 81 80 82 84 86 90 93 90 85 85 84 77 68 65 65 62 54 49 46 44 45 47 48 50 52 53 54 54 54 55 57 58 57 52 48 48 48 49 50 50 49 49 47 41 34 27 23
48 63 67 52 47 50 44 45 53 50 49 59 72 82 79 65 68 86 92 85 85 86 77 70 81 81 65 65 74 70 70 74 71 71 76 79 85 89 87 85 84 85 86 87 90 92 89 86 86 86 83 74 66 68 70 65 57 52 50 49 47 47 48 49 51 52 52 52 53 54 55 54 51 49 49 50 51 52 52 51 50 47 41 35 30 26
55 69 67 55 58 58 47 50 59 51 48 70 89 90 84 82 83 88 90 85 86 91 82 76 87 87 69 66 72 70 70 71 71 76 78 82 91 92 86 86 86 85 85 86 89 90 87 86 87 88 89 83 72 68 73 77 71 62 59 60 56 53 51 50 50 50 50 52 52 53 53 51 50 50 50 52 53 53 54 54 52 48 44 40 37 32
68 70 67 68 73 66 53 54 61 58 60 82 94 84 81 86 83 79 84 82 78 82 87 89 89 81 70 71 76 74 72 72 75 77 77 87 95 89 82 83 83 83 87 89 91 89 85 88 91 89 89 90 83 71 70 79 81 73 68 70 68 62 55 52 52 51 51 52 52 53 52 52 52 53 53 55 56 56 57 57 55 54 52 48 42 35
78 71 68 73 74 72 66 60 65 73 82 91 81 64 69 79 77 79 86 85 80 78 82 85 80 73 71 75 79 79 76 77 78 73 72 85 91 84 79 79 82 87 91 89 87 85 86 89 91 89 89 91 87 76 69 74 81 80 75 74 74 71 63 56 54 52 52 52 53 53 53 54 55 56 56 58 60 61 61 62 63 63 60 54 45 38
77 75 76 77 79 84 78 71 81 88 86 81 64 51 58 61 60 72 82 84 85 81 77 80 77 71 73 74 76 81 80 77 75 68 67 77 82 79 77 79 86 91 88 84 84 86 89 89 89 90 92 91 90 83 73 69 74 81 82 79 77 76 70 62 57 54 53 53 53 53 54 55 56 58 60 62 64 66 67 70 73 72 66 56 47 41
73 77 82 84 86 89 81 78 89 88 73 66 61 57 58 54 58 76 84 85 88 84 81 84 78 71 71 70 73 81 79 74 72 67 66 71 73 74 78 83 88 88 84 84 87 89 91 94 95 96 96 96 97 93 79 67 69 80 86 85 82 79 75 68 61 57 56 55 54 54 55 57 59 61 64 67 70 73 76 79 80 76 68 58 50 46
76 77 82 86 85 88 91 86 82 79 75 74 74 70 65 61 66 81 89 88 86 85 83 82 77 72 69 69 75 78 74 73 72 64 61 66 70 75 81 83 85 86 84 85 89 92 95 97 98 99 99 99 99 95 86 78 78 84 89 90 89 83 78 73 66 61 60 58 57 58 59 62 64 67 70 74 77 80 83 85 83 77 69 60 52 47
76 75 78 85 85 87 95 93 85 85 90 88 83 73 64 58 54 66 88 93 85 82 82 77 75 72 67 69 73 70 71 81 80 67 63 70 73 76 77 76 81 87 86 85 92 96 94 95 99 101 99 93 86 82 84 88 91 93 95 96 94 88 82 78 71 66 64 62 62 63 65 68 71 74 77 80 83 86 88 88 85 78 69 61 54 46
72 77 75 81 90 90 91 94 93 93 94 92 86 70 54 50 50 63 88 96 87 82 79 73 71 69 69 72 71 70 81 95 91 74 67 71 74 74 73 71 75 81 83 87 95 94 92 96 97 91 85 80 74 72 79 89 95 98 100 99 98 93 87 82 77 71 68 66 66 68 71 75 78 81 83 86 88 91 92 90 84 76 68 61 54 46
78 88 82 81 92 89 85 89 89 87 89 86 78 65 50 43 51 69 85 89 86 83 75 69 71 72 72 72 70 74 86 92 87 74 67 72 77 78 77 73 71 75 81 87 91 93 96 95 85 77 77 78 77 77 81 90 97 99 100 100 99 98 92 87 82 76 72 70 70 73 78 82 85 87 88 91 93 94 94 89 81 73 67 61 55 46
86 93 85 84 94 90 85 90 82 80 90 84 66 55 47 43 57 78 90 89 85 77 68 67 73 74 70 67 68 72 75 75 77 74 73 80 85 84 80 73 70 77 84 86 89 95 96 84 74 77 83 83 84 85 87 94 99 98 98 99 100 99 96 91 86 80 76 76 76 79 84 87 90 92 93 95 96 95 92 86 77 71 66 61 54 47
90 96 86 86 96 90 85 89 82 77 84 76 56 47 49 61 78 87 87 84 76 68 66 71 75 73 69 67 70 73 75 77 79 77 80 90 93 88 79 74 79 86 85 84 92 98 92 80 78 84 85 84 87 89 90 97 97 93 95 99 100 100 99 95 91 86 83 82 83 86 91 93 94 96 97 98 98 94 88 81 75 71 66 59 53 47
89 97 95 90 92 89 83 85 88 88 79 62 55 57 59 70 82 82 79 77 70 66 71 77 76 72 70 71 74 77 81 81 77 76 83 93 94 87 80 82 91 90 82 87 98 95 86 85 88 89 87 87 90 91 92 96 94 92 97 100 99 100 100 99 97 94 91 91 92 94 96 97 98 99 100 99 96 91 85 79 73 69 63 57 52 48
87 93 98 92 87 92 95 84 76 78 69 55 58 66 63 62 69 74 78 76 70 71 76 79 76 73 72 75 77 78 78 74 72 76 82 85 87 87 89 95 94 83 81 95 102 93 87 90 92 91 88 87 90 93 94 94 94 95 99 100 99 100 100 100 100 99 98 98 99 99 100 100 100 101 100 97 93 88 83 77 71 66 61 55 50 48
83 75 81 87 83 83 87 75 59 57 55 51 55 59 58 60 68 75 77 73 71 74 74 74 74 75 76 77 77 79 79 75 76 78 77 80 88 94 98 96 85 78 87 99 101 97 94 92 93 95 90 86 90 96 94 94 97 98 98 100 100 99 100 100 100 100 100 100 100 100 100 101 101 100 96 92 88 83 78 73 69 64 58 53 50 49
72 59 68 86 85 74 66 58 53 53 52 53 57 58 58 65 73 77 76 72 71 70 68 70 74 76 78 78 77 79 81 80 81 80 79 85 93 94 94 91 84 85 95 100 99 100 96 90 94 99 94 88 91 95 95 96 99 100 99 100 100 99 100 100 100 100 100 100 100 100 101 101 100 96 91 86 81 78 74 71 67 62 57 53 52 52
70 64 75 85 85 83 75 59 50 53 56 59 62 58 57 66 76 78 75 70 67 65 66 71 76 78 79 80 78 78 79 80 81 82 83 88 92 92 95 96 93 92 95 97 101 101 96 93 97 100 98 94 94 95 97 98 99 100 100 100 99 100 100 99 100 100 100 100 100 100 101 101 99 94 88 83 79 77 74 70 66 61 56 54 53 54
73 70 82 85 82 84 78 59 53 61 65 64 63 60 61 72 82 80 73 68 64 64 68 74 78 80 80 80 80 81 83 83 83 85 86 86 88 94 99 100 97 90 86 94 102 100 96 98 100 100 100 99 98 99 98 97 98 101 100 99 99 100 100 99 100 100 99 100 100 100 100 102 100 95 90 85 81 78 75 71 66 60 56 54 54 55
71 76 84 86 87 84 73 61 65 75 73 66 66 66 69 81 90 85 74 67 64 68 74 78 80 79 78 79 80 83 87 88 86 86 88 85 86 95 99 95 89 83 85 96 102 97 95 99 101 101 101 100 101 102 98 94 95 97 99 100 100 99 99 100 100 99 100 100 100 100 100 101 101 99 95 89 84 79 75 70 66 62 58 58 59 60
78 88 85 88 96 92 78 72 78 86 85 75 68 68 72 83 90 80 69 69 74 79 82 81 80 80 79 79 81 83 90 93 87 85 87 85 87 95 96 88 84 88 94 101 100 96 97 100 101 101 102 101 101 101 97 93 92 93 96 100 100 99 100 100 99 100 100 99 100 100 100 99 101 102 99 93 86 80 75 72 68 64 61 60 62 63
82 87 85 93 101 92 81 77 78 82 83 74 67 69 73 78 79 74 74 83 88 87 83 80 80 82 83 83 84 86 92 96 90 85 86 86 88 95 96 88 89 97 101 100 99 99 100 100 100 101 100 98 96 94 92 91 90 91 93 96 99 100 100 99 99 100 100 99 100 100 99 100 102 102 100 96 90 83 79 74 69 65 63 62 62 62
Wind_Speed
1 0 2 5 6 6 5 6 6 4 4 3 2 2 4 4 6 6 5 5 0 1 7 7 8 13 17 15 14 19 19 22 27 26 27 31 32 34 37 40 42 44 44 40 38 40 41 43 45 46 48 49 48 46 44 44 44 44 44 44 44 42 40 38 37 37 38 38 38 38 38 37 36 33 32 30 29 28 26 25 23 22 21 20 19 19
1 3 5 8 8 6 5 4 2 1 2 1 2 3 4 3 6 6 4 6 3 0 5 3 6 14 17 16 17 16 12 17 25 25 28 33 34 35 37 41 44 44 43 40 40 41 41 43 45 46 47 49 50 50 49 49 49 49 48 49 48 44 42 41 40 40 41 41 41 40 39 38 36 34 32 31 29 28 27 26 24 22 21 20 19 19
2 5 8 7 5 4 1 2 4 1 1 1 2 1 4 3 5 6 3 5 3 1 5 3 5 14 18 16 17 16 13 21 30 30 33 35 33 36 39 42 43 42 42 43 43 42 42 42 44 46 47 48 49 49 49 50 50 51 51 51 49 46 44 43 42 42 42 42 41 40 38 36 34 33 32 30 28 27 28 27 25 23 22 21 20 20
2 5 6 3 3 3 2 3 4 2 1 2 2 1 5 3 1 4 4 5 3 2 5 5 6 12 16 12 13 16 16 23 29 28 33 34 33 38 41 42 42 41 43 44 44 43 42 42 43 46 47 48 48 48 48 49 49 50 51 50 49 47 45 44 43 43 42 41 39 38 37 34 33 31 30 29 28 28 29 29 28 26 24 23 22 21
6 5 3 2 5 4 1 1 2 1 3 3 4 5 5 4 4 5 4 5 5 3 3 4 6 8 9 7 9 9 7 14 19 19 25 31 34 38 39 39 40 42 44 44 44 44 43 43 44 44 46 47 49 50 51 51 51 50 50 49 48 47 46 44 43 42 41 40 39 38 37 35 34 33 32 32 33 33 33 31 29 27 25 24 23 23
7 4 2 3 3 4 3 3 3 5 2 4 5 7 6 5 5 4 4 5 4 5 2 2 4 6 5 7 12 8 4 9 10 10 18 25 29 32 35 38 39 40 42 43 43 43 43 44 44 44 45 46 49 50 51 51 51 50 49 49 48 48 47 45 44 42 42 42 41 41 41 40 40 39 38 37 36 35 33 30 28 26 25 25 25 24
3 0 2 4 3 3 2 4 5 6 3 3 4 5 6 5 2 1 3 3 1 4 4 3 2 6 7 10 14 8 7 11 9 7 15 21 23 26 32 37 38 39 41 42 42 43 44 44 44 45 45 46 47 47 48 50 50 51 50 50 50 49 48 46 45 43 43 43 43 43 43 43 43 42 41 37 35 32 30 28 27 26 26 26 25 23
2 1 3 4 3 2 2 5 5 8 6 3 4 5 6 3 2 2 3 1 3 4 4 2 5 4 6 9 9 5 8 11 10 10 13 17 21 25 30 33 35 38 40 41 43 43 44 45 45 45 46 46 45 44 46 49 50 51 51 51 51 50 49 47 45 44 44 44 44 44 44 44 44 43 39 34 32 30 29 29 28 28 28 27 25 23
2 3 4 4 3 3 5 5 6 8 4 4 4 4 2 2 3 4 5 2 1 3 5 3 5 2 6 8 6 4 7 11 11 11 11 13 19 22 26 30 32 35 37 39 41 42 43 43 43 44 44 44 44 44 45 47 48 49 50 51 51 51 50 48 46 45 45 45 44 44 45 45 45 43 39 35 32 31 31 31 30 30 29 27 25 24
1 3 5 6 5 5 6 4 4 6 3 2 4 4 3 3 3 3 4 2 2 2 6 6 6 3 5 8 5 2 5 8 10 10 9 13 18 19 22 26 29 32 34 37 39 40 40 41 41 41 42 43 44 43 44 45 46 48 50 51 51 51 50 48 47 46 45 45 45 45 46 46 45 43 40 37 35 33 33 33 33 32 30 27 26 26
1 1 2 4 5 5 4 2 1 3 3 3 5 3 4 4 3 3 2 3 3 3 8 7 9 4 3 6 5 4 6 7 7 7 8 11 16 19 20 22 25 29 32 34 36 37 38 38 39 40 41 42 43 44 44 46 47 48 49 51 51 50 49 48 47 46 46 46 46 47 47 46 45 43 41 40 39 37 36 35 34 32 30 29 28 27
2 1 2 3 5 5 6 2 1 3 3 3 3 3 3 4 3 4 4 3 2 6 7 4 6 5 3 7 6 6 8 7 7 7 8 9 14 19 20 21 22 24 28 31 34 35 36 37 38 39 41 42 43 44 46 46 47 48 49 50 50 50 50 49 48 47 47 47 47 48 48 46 45 43 43 42 41 40 39 37 34 33 32 31 30 29
2 4 3 0 3 6 5 2 1 3 4 4 3 4 2 4 3 3 3 0 3 7 5 1 4 3 6 10 11 12 14 11 9 11 12 12 17 23 23 23 23 22 24 28 31 33 34 35 37 38 40 42 44 45 46 47 47 48 48 49 50 50 49 49 49 48 48 48 49 49 49 48 46 45 44 43 42 41 39 36 35 34 33 33 32 31
4 4 0 2 3 7 8 4 2 2 2 4 4 4 3 1 1 4 4 3 5 6 4 1 3 3 5 8 13 17 19 16 10 15 22 22 24 27 26 24 24 23 22 24 27 30 32 33 34 36 37 40 42 44 45 47 47 48 48 48 50 50 49 49 50 49 49 50 50 50 50 49 47 47 45 44 43 41 39 37 35 34 34 33 32 30
2 5 3 4 2 7 9 5 5 5 3 4 4 5 4 4 3 5 4 4 6 4 4 2 1 4 5 4 8 12 15 16 14 16 20 23 26 27 26 26 26 25 23 23 24 26 27 27 29 33 35 37 40 41 44 46 47 49 49 48 49 49 49 49 50 50 51 51 51 50 50 49 49 48 46 45 44 41 39 37 36 35 34 32 31 29
3 6 5 1 2 8 6 3 5 5 1 3 3 4 2 4 5 3 4 5 2 3 4 3 3 6 5 6 9 10 13 14 15 16 17 22 25 23 25 27 26 25 24 24 24 21 20 22 25 29 32 35 38 40 43 45 46 48 49 49 49 49 49 50 50 51 51 52 52 52 51 50 49 48 46 45 44 42 40 38 37 36 34 32 31 30
2 6 4 2 1 6 5 2 3 2 1 1 3 3 4 4 6 1 3 1 2 3 5 3 6 6 3 8 11 11 14 12 9 10 12 17 19 16 20 24 25 25 24 23 22 17 16 18 20 24 28 32 36 39 42 43 45 47 48 49 49 49 50 50 51 51 51 52 53 52 52 51 50 48 47 46 44 43 41 39 38 36 34 33 31 30
2 5 5 2 3 5 3 1 4 6 4 4 3 5 3 2 3 3 1 3 2 4 5 2 8 7 1 6 7 3 8 9 6 5 5 9 11 12 17 20 21 21 19 19 18 15 14 15 17 20 24 29 33 37 41 43 45 47 48 48 49 49 50 50 51 51 52 53 53 53 53 52 50 49 48 47 45 43 41 40 39 37 35 33 31 29
2 3 6 1 2 2 1 1 5 7 6 5 2 3 2 3 1 1 2 2 2 5 5 3 7 6 4 6 8 5 6 9 7 6 7 7 10 13 18 20 19 18 17 17 17 15 14 14 17 19 22 25 29 33 38 41 44 46 47 48 48 49 49 49 50 51 52 52 53 53 53 52 51 50 48 47 45 43 42 41 39 37 35 32 30 29
2 1 5 2 1 1 2 1 3 3 2 1 1 3 0 3 4 2 2 2 3 4 7 4 4 5 6 7 9 9 9 9 8 6 6 7 10 15 17 18 19 19 18 18 17 16 16 16 17 19 22 24 25 28 33 37 40 43 45 47 48 48 49 49 49 50 51 52 52 53 52 52 51 50 49 47 45 43 42 40 38 36 34 32 30 28
1 1 4 4 3 0 2 5 7 6 4 3 2 3 2 2 1 0 2 2 4 4 5 4 6 7 5 4 7 8 7 7 6 6 6 9 16 20 22 23 25 25 24 23 21 20 19 19 20 20 21 23 23 25 28 32 36 39 42 44 46 47 48 49 49 50 51 51 52 52 52 51 51 49 48 46 44 43 41 39 38 35 33 31 29 27
2 3 3 4 3 4 8 8 8 8 7 6 6 6 6 5 3 1 5 2 3 4 4 4 8 8 3 4 5 6 7 8 10 9 8 15 24 28 30 31 30 29 27 24 23 22 22 21 21 21 22 23 24 24 25 27 31 35 38 41 43 45 47 48 48 49 50 51 51 52 51 51 50 49 47 45 44 43 41 39 37 34 32 30 28 27
2 2 2 6 7 10 11 4 2 4 2 2 3 3 3 4 5 5 7 4 2 3 1 1 6 5 4 6 8 10 10 13 18 19 16 21 29 32 34 35 34 33 31 28 26 25 24 24 23 22 22 23 24 25 25 26 28 31 34 38 40 43 45 46 47 48 48 49 50 50 50 50 49 48 46 45 44 42 40 38 35 33 31 29 27 26
1 1 2 6 7 9 7 3 5 3 3 1 4 2 3 3 2 3 5 2 1 5 3 0 5 3 5 7 9 14 18 21 27 28 24 25 30 33 35 35 36 35 34 32 30 28 27 28 27 26 26 27 27 26 26 27 27 29 31 34 37 40 43 44 45 46 47 48 49 49 49 49 48 46 45 44 43 41 39 36 33 31 29 27 26 25
2 1 1 3 7 9 7 5 5 4 2 2 4 1 1 4 5 4 3 1 3 9 7 2 7 5 4 11 14 19 22 20 23 29 28 26 29 32 34 34 35 36 36 36 35 34 32 31 31 30 30 31 31 31 30 28 28 29 30 32 35 37 40 42 44 45 46 47 48 48 48 48 47 46 45 44 42 40 37 35 32 30 28 27 26 25
3 2 2 3 6 8 8 8 4 3 2 2 2 4 2 4 7 5 3 3 6 10 8 5 10 8 5 15 18 18 19 18 22 28 29 29 30 30 31 31 33 34 37 38 38 37 35 35 34 34 34 32 31 31 32 32 30 30 31 32 33 35 36 39 41 43 45 46 47 48 48 47 47 46 44 43 41 39 36 34 31 29 28 26 25 24
1 2 4 7 9 10 12 13 4 5 5 8 9 11 7 3 6 4 2 6 8 8 7 9 13 9 9 17 18 17 16 16 18 22 27 30 29 27 28 30 32 35 37 39 39 39 38 37 36 36 36 35 33 31 30 31 31 31 32 32 33 34 35 37 38 41 43 45 46 47 47 47 46 45 44 42 40 37 35 32 31 29 27 26 24 24
0 5 6 6 10 14 16 15 9 8 9 12 13 15 13 9 5 4 7 11 10 8 9 13 13 7 9 14 16 16 15 13 15 20 25 26 23 24 27 31 35 38 40 42 41 40 38 37 37 37 36 36 36 35 33 31 30 31 32 34 34 35 36 37 38 39 41 43 45 47 47 47 45 44 43 41 38 36 34 32 30 28 26 25 24 24
2 6 4 2 9 15 14 12 10 8 9 9 9 10 12 12 10 7 10 12 10 8 9 12 11 8 11 14 15 15 15 15 17 23 25 23 20 23 28 32 36 38 39 40 40 38 36 36 38 40 38 35 34 35 35 35 34 33 34 35 35 36 37 38 39 40 41 42 45 46 47 46 45 44 42 40 37 35 33 32 30 28 26 25 24 24
2 3 3 2 9 14 12 7 5 5 6 6 7 11 12 11 10 8 8 10 8 5 7 12 9 8 11 13 13 15 17 18 22 26 26 22 21 25 29 32 36 37 37 39 38 36 35 38 40 40 40 38 34 32 33 35 35 36 36 37 37 38 39 39 40 41 41 43 44 45 46 46 45 43 41 39 37 35 33 32 30 28 26 25 24 24
2 2 3 3 6 13 10 5 4 5 5 5 11 15 14 11 9 9 9 10 8 6 9 12 8 8 12 13 15 18 20 19 22 27 27 23 21 24 27 31 36 38 38 40 39 36 38 42 42 41 41 42 39 34 32 32 34 35 36 37 38 40 41 41 42 42 43 44 44 44 46 46 45 43 41 39 37 35 34 32 30 28 27 25 25 25
1 2 4 5 4 11 7 5 7 10 6 6 14 18 17 11 9 7 6 8 7 6 10 12 9 8 13 16 17 18 20 21 21 24 26 22 19 22 25 32 38 40 42 42 40 39 42 44 43 42 43 45 43 39 35 33 33 34 35 36 38 40 42 43 44 44 44 44 44 45 45 46 45 43 41 39 38 36 34 32 30 29 27 27 26 26
1 1 4 3 3 9 9 7 9 12 8 2 8 13 14 10 9 7 4 5 7 5 6 8 5 7 12 15 17 16 17 20 21 25 28 20 16 24 31 38 41 42 41 40 39 41 44 43 41 42 43 45 45 43 39 35 33 33 34 35 36 38 41 43 44 45 45 45 45 45 45 45 44 43 42 40 38 36 34 32 30 29 28 27 26 27
2 1 2 1 1 8 11 10 9 8 6 1 5 8 10 8 9 11 6 3 6 6 5 4 4 8 11 12 13 15 17 19 22 29 30 19 19 31 38 41 41 38 37 39 40 43 43 42 43 45 45 46 46 45 43 38 33 31 33 35 36 36 39 42 43 45 45 45 45 44 44 44 43 42 41 39 37 36 34 32 30 29 28 27 28 29
3 2 3 2 2 4 6 6 7 6 2 2 4 5 8 6 4 8 6 2 5 8 8 8 7 10 13 14 15 17 20 25 29 30 27 17 22 35 41 41 38 33 36 41 43 43 42 42 45 46 47 48 47 46 45 41 36 32 32 34 35 35 36 39 42 43 44 44 44 44 43 43 42 41 40 39 37 36 33 31 30 29 28 28 29 30
3 2 2 1 2 3 3 3 6 3 3 3 3 5 14 10 6 9 5 1 6 9 9 10 11 12 15 19 19 18 23 31 31 24 17 14 23 35 38 37 34 34 38 41 40 42 43 42 43 45 46 47 46 46 46 43 39 35 33 33 35 35 35 36 40 42 43 43 43 43 42 42 42 41 40 39 37 35 33 31 30 29 29 29 29 30
0 0 2 1 0 2 3 5 5 3 2 3 4 6 11 10 9 11 8 2 4 8 9 12 14 15 20 23 22 23 28 28 21 13 10 15 27 35 34 31 32 36 40 40 40 41 42 43 44 45 45 46 47 47 46 43 39 36 33 33 34 34 34 36 38 40 42 42 42 42 41 41 41 41 40 39 37 35 32 30 29 29 29 29 30 30
4 1 2 1 1 2 3 5 5 4 4 3 6 8 10 12 14 13 10 6 2 12 17 17 15 18 22 25 27 30 28 18 11 11 17 25 33 35 33 33 35 37 40 42 41 42 44 46 46 45 46 49 50 47 44 41 39 36 34 33 33 34 35 36 37 39 40 41 42 41 40 40 40 40 38 37 35 33 31 29 29 29 28 28 29 29
6 3 3 2 1 3 4 4 5 4 2 1 7 12 17 23 22 14 8 4 5 18 23 18 16 20 22 25 28 26 18 8 6 17 31 41 43 39 36 37 38 38 40 41 41 43 46 47 47 48 50 50 49 46 43 41 39 37 35 33 32 33 35 35 36 38 39 41 41 40 40 39 38 37 36 34 33 30 28 28 28 27 27 28 29 29
5 4 4 4 2 3 4 3 3 2 1 2 8 13 23 31 24 10 6 4 11 22 24 20 21 24 24 28 28 18 11 9 13 27 44 50 45 40 38 40 42 43 43 43 41 41 42 46 50 53 51 48 47 46 44 41 38 36 34 32 32 33 34 34 35 37 38 39 40 39 38 37 35 33 32 31 29 27 26 27 26 27 27 28 28 28
2 2 3 3 1 3 3 3 3 2 2 3 9 15 27 30 16 3 4 9 15 24 28 27 27 26 27 31 28 19 20 26 31 39 47 44 39 38 41 44 46 45 44 44 43 40 42 48 52 50 48 47 46 43 40 38 36 33 31 30 32 33 33 33 35 36 37 38 38 37 35 33 31 30 28 27 26 25 25 26 26 26 27 27 28 28
1 2 2 1 1 2 1 2 4 4 1 9 18 21 23 18 6 5 10 15 19 25 29 29 27 26 30 33 32 30 34 38 39 41 41 35 32 37 44 47 47 45 46 45 42 41 46 50 50 47 46 45 43 39 36 33 32 30 28 29 31 31 31 32 34 34 35 35 34 33 31 29 27 26 25 24 24 24 25 25 26 26 27 27 27 27
1 1 3 2 1 1 1 2 4 3 4 18 22 16 12 9 10 13 15 18 22 25 26 24 25 28 32 36 37 37 38 39 40 40 38 35 35 40 45 44 43 45 47 45 42 44 48 48 47 47 45 42 40 37 33 30 29 28 28 29 30 29 30 31 31 31 31 30 29 28 26 24 23 22 22 23 23 24 25 25 26 27 27 27 27 27
1 2 1 2 0 1 0 1 2 5 12 20 16 9 14 21 21 15 14 18 23 24 21 23 27 29 31 34 37 37 36 38 39 40 41 42 43 43 42 40 41 47 47 43 43 46 47 46 46 45 42 39 38 36 32 29 28 27 27 28 28 27 28 28 27 26 25 25 24 22 21 20 20 20 21 22 23 24 25 25 25 26 26 27 27 27
2 3 1 3 1 1 4 7 10 16 21 21 18 21 31 32 21 14 17 19 22 23 24 27 31 32 32 33 34 34 34 36 39 41 44 46 44 41 39 40 45 47 45 43 44 45 44 44 43 41 39 37 36 35 32 28 26 26 26 25 25 25 25 23 22 22 21 20 19 17 17 17 18 19 20 21 22 23 24 24 25 26 26 27 27 28
2 4 2 1 3 5 7 12 16 17 17 22 26 30 33 25 16 16 22 21 21 25 29 31 33 35 35 34 33 34 36 38 40 43 45 44 44 42 41 43 45 44 43 43 43 43 44 44 40 37 37 36 33 33 32 28 24 24 24 23 23 23 21 20 19 17 16 15 15 15 16 17 18 18 19 20 21 22 22 23 24 24 25 26 26 27
2 2 1 1 2 4 5 8 11 13 18 26 30 31 29 23 19 19 23 23 24 29 31 32 34 35 36 34 34 36 38 39 40 42 43 43 45 44 42 41 42 42 44 43 40 41 43 42 38 36 35 34 32 31 30 27 25 22 21 21 21 21 20 18 16 14 13 13 14 15 16 16 17 17 17 18 20 21 21 22 23 23 24 25 26 26
1 1 2 2 2 4 8 13 19 25 25 22 22 27 29 25 21 22 25 26 30 33 33 33 33 34 35 35 35 37 38 38 38 39 41 43 45 44 41 40 41 45 46 41 38 40 42 39 36 35 34 32 31 30 28 27 25 22 20 19 19 18 18 17 15 14 14 15 15 16 16 16 16 16 16 17 18 19 20 21 22 22 23 24 24 25
2 2 2 3 4 7 9 13 22 26 21 17 21 30 29 23 22 27 31 32 34 35 34 34 35 35 35 36 37 38 38 38 37 37 39 41 43 42 39 40 44 47 44 38 38 41 41 37 34 34 33 32 31 29 28 27 25 23 21 19 17 17 16 16 16 16 17 16 17 16 16 16 16 16 16 17 17 18 19 20 20 21 22 22 22 22
2 3 2 3 5 5 7 14 19 16 14 21 33 36 32 28 30 34 36 35 32 31 34 37 39 38 36 36 37 38 38 39 38 39 39 39 40 38 38 42 46 45 40 37 40 40 37 34 33 34 33 31 30 29 28 26 25 24 22 20 18 16 15 15 16 16 17 17 17 17 16 16 16 16 16 17 17 18 18 19 20 20 21 21 21 21
2 0 2 3 6 8 13 21 24 20 20 29 38 38 36 36 36 37 36 33 31 34 37 39 41 41 41 39 37 36 38 40 39 39 40 40 39 37 38 41 43 41 38 39 39 37 35 34 33 32 31 31 30 29 28 26 24 23 22 20 19 17 16 16 16 16 17 17 17 17 17 17 16 16 16 17 17 18 18 19 20 20 20 21 21 21
Wind_Direction
108 236 228 225 230 224 219 189 188 190 157 166 177 202 240 242 270 272 267 285 81 210 264 241 247 265 269 270 261 252 237 227 236 239 237 235 233 232 230 231 231 231 239 242 237 233 228 225 223 221 221 221 222 224 226 226 228 229 230 232 234 232 229 228 228 228 229 230 231 232 234 236 236 236 237 237 238 237 236 235 233 230 228 226 226 231
71 235 241 231 221 202 206 186 149 143 126 115 173 239 275 234 258 262 242 295 5 111 271 265 273 272 267 272 273 256 227 228 235 232 236 235 233 234 232 233 235 236 240 239 236 235 230 227 225 224 223 222 223 225 228 231 232 232 233 234 235 233 229 228 230 231 232 234 234 235 235 236 236 237 237 237 237 236 234 233 232 231 231 232 233 236
352 249 248 238 208 166 128 73 81 65 115 115 144 204 280 252 275 286 278 320 12 151 275 315 301 280 274 272 272 260 232 240 243 235 238 238 233 234 234 235 236 236 237 236 236 236 233 231 228 227 227 226 226 227 229 231 231 232 232 234 234 233 231 230 231 232 234 236 237 238 239 239 238 238 239 238 237 235 233 233 232 232 234 236 238 240
292 252 245 224 140 116 9 40 81 44 2 198 179 191 263 265 301 282 298 326 313 233 273 306 305 282 282 281 272 264 243 247 253 246 245 243 238 239 240 239 237 235 235 235 236 236 234 232 229 228 229 229 228 228 229 230 230 231 231 232 233 232 232 233 233 234 235 236 237 238 239 240 240 240 239 238 234 230 229 230 230 232 234 237 240 242
241 246 215 107 81 107 166 331 99 148 297 269 208 198 231 247 218 230 287 322 306 311 280 299 313 283 286 300 284 278 248 250 260 255 251 246 242 245 245 243 240 239 239 237 236 236 234 233 231 231 231 230 229 229 230 231 231 231 232 233 233 233 234 234 234 234 233 232 232 233 233 233 234 235 234 232 228 224 223 225 228 231 234 237 240 243
257 245 167 131 69 97 156 253 214 182 252 304 236 206 198 194 209 249 329 346 346 336 292 38 353 288 301 305 278 286 303 276 273 259 256 252 245 242 242 243 242 241 242 241 240 239 237 237 235 233 231 230 230 231 232 232 232 232 233 234 234 234 235 235 236 234 232 231 229 229 228 227 226 227 227 226 223 222 222 225 228 231 234 238 241 244
252 254 92 135 138 107 145 254 236 168 139 304 249 188 154 146 164 273 5 14 332 279 265 95 103 267 307 300 276 293 316 291 290 272 261 260 251 240 240 244 242 241 241 240 241 240 238 238 236 234 232 231 232 233 232 232 232 232 234 235 235 236 236 236 236 233 232 230 229 229 229 228 227 227 227 227 225 225 226 228 230 233 236 240 243 246
170 83 53 101 123 145 199 252 229 150 129 248 233 136 127 136 187 186 109 125 234 277 293 140 150 242 294 282 276 323 320 296 292 284 273 265 254 243 244 246 244 243 241 239 239 239 238 237 236 236 236 235 236 235 232 231 232 233 234 236 237 238 238 237 235 233 232 230 229 229 229 229 229 230 231 231 229 227 227 228 231 235 239 242 244 247
153 172 194 159 134 192 217 233 201 159 149 241 203 135 134 175 174 148 124 173 269 350 305 223 153 221 270 268 289 337 302 291 285 276 273 269 262 252 249 250 249 248 245 242 242 242 241 239 240 241 241 240 238 236 234 234 235 234 235 236 237 237 238 237 235 233 231 231 230 229 228 227 229 230 231 230 230 229 228 229 232 237 241 243 244 245
172 188 197 161 160 217 226 232 187 169 190 211 144 104 45 66 92 103 123 151 53 6 264 223 169 200 271 273 291 313 263 263 267 269 266 269 272 265 259 258 256 252 247 245 245 245 245 244 245 245 243 241 240 238 238 237 236 236 235 236 237 237 236 235 234 232 230 229 229 228 227 227 227 228 227 227 228 228 229 231 235 239 243 243 244 245
273 147 189 177 194 199 171 150 99 134 153 121 98 64 23 32 43 49 85 94 72 264 258 226 184 173 293 275 255 224 223 217 227 263 273 274 277 272 267 264 260 257 252 249 247 246 247 247 247 245 243 243 241 239 237 236 236 237 236 236 237 238 236 234 232 231 229 228 228 227 227 227 227 226 225 225 225 226 229 232 236 241 243 242 243 244
318 161 227 219 195 147 109 101 41 64 99 99 74 52 10 344 12 18 359 50 114 248 267 241 176 157 238 260 252 237 238 216 203 240 262 267 273 272 273 273 268 263 259 254 249 247 246 244 243 242 242 243 241 238 236 237 237 237 237 237 237 237 235 233 231 230 229 228 227 227 227 228 227 226 226 226 227 228 231 234 237 239 239 238 238 241
279 223 240 158 185 164 127 96 338 4 48 88 88 75 39 322 344 337 301 312 214 242 268 225 159 181 236 254 266 266 261 245 213 227 245 253 265 272 278 281 280 273 263 257 253 249 246 244 244 244 244 242 239 239 239 238 237 237 238 238 237 237 236 233 231 229 229 228 227 227 227 227 227 227 228 229 230 232 234 237 238 239 237 236 238 242
317 304 260 126 241 191 162 151 212 253 114 138 152 129 133 155 314 282 268 272 269 262 275 247 183 244 271 263 253 251 259 262 242 237 247 252 260 268 275 281 284 280 271 263 257 252 247 247 248 248 248 245 243 243 242 239 238 238 238 238 238 238 236 234 232 230 229 229 229 228 228 227 227 227 228 230 232 234 236 238 240 240 238 239 243 247
284 307 224 186 205 175 180 192 167 145 146 182 167 138 154 156 183 246 233 233 265 284 292 290 212 210 212 255 247 235 256 273 268 255 253 255 257 262 270 275 278 279 277 273 263 254 250 251 252 252 251 249 249 248 245 242 240 239 239 239 240 240 237 234 232 230 230 229 229 229 229 228 228 228 229 231 233 235 237 239 239 237 237 240 244 246
199 264 250 228 139 159 185 207 141 119 140 221 142 115 183 183 170 223 214 199 233 307 285 240 237 224 210 277 282 264 268 269 261 257 253 254 257 261 268 270 271 271 272 273 267 257 251 254 255 255 254 253 252 250 248 246 244 243 242 241 241 241 240 237 234 232 231 230 230 230 230 230 230 230 231 232 234 235 237 238 237 235 236 239 241 243
209 267 273 32 192 186 185 173 165 184 184 162 156 185 227 183 142 168 266 308 54 286 264 203 244 271 298 288 275 264 273 279 273 262 249 254 264 268 267 267 269 271 270 269 266 255 252 259 264 265 262 258 254 251 250 250 249 248 247 244 242 241 240 238 236 234 232 231 231 231 231 231 231 231 232 233 234 235 236 236 233 232 234 237 240 244
187 271 264 177 218 230 189 173 280 255 186 144 188 223 231 153 109 100 256 325 7 258 262 221 247 264 295 283 279 262 280 290 293 296 301 293 287 275 266 266 270 273 272 270 266 258 259 273 282 283 278 268 261 255 252 251 250 248 247 246 245 243 241 241 238 235 234 233 232 232 232 232 232 232 233 234 235 235 235 233 230 230 233 237 241 246
141 283 285 190 184 261 68 32 290 261 205 170 208 239 162 168 225 98 158 249 249 256 278 266 261 260 195 241 274 271 269 278 284 316 336 309 290 282 277 279 281 281 279 277 272 268 277 296 303 300 294 283 272 263 256 252 249 247 246 246 245 245 244 243 240 237 236 235 234 234 233 233 232 233 234 235 235 234 233 231 229 231 234 237 242 247
123 240 284 311 275 282 43 148 227 235 189 113 323 309 53 173 201 172 164 188 183 247 279 282 283 267 214 233 267 263 262 268 278 310 317 298 313 320 316 316 320 323 322 317 307 295 298 310 313 310 304 294 283 272 263 257 252 249 247 245 244 244 243 241 240 239 237 236 235 234 234 233 234 234 235 235 235 233 231 228 229 231 235 238 243 248
106 189 251 296 319 236 199 206 199 188 166 158 219 247 228 187 153 220 229 152 144 220 261 270 273 266 244 255 270 272 292 314 320 325 321 334 351 353 354 355 352 352 351 347 340 329 320 317 312 308 305 300 291 280 271 264 259 253 250 247 245 243 242 241 240 239 238 237 236 235 235 235 235 236 236 235 233 231 228 227 229 231 235 239 244 249
192 183 227 286 291 233 234 222 198 193 182 173 197 207 203 184 131 225 254 220 169 211 205 231 269 275 296 352 353 339 349 10 6 354 352 2 6 7 9 10 6 1 358 352 348 342 335 329 320 312 308 305 301 292 282 272 265 259 255 250 247 244 243 242 241 239 238 237 236 237 237 237 237 236 235 234 231 227 226 227 229 232 235 240 245 250
176 149 231 270 259 253 263 264 188 211 193 175 218 201 178 172 154 198 244 234 191 257 227 217 279 294 350 15 34 30 23 28 20 14 14 10 10 11 13 15 14 11 8 3 356 349 343 339 332 326 320 316 310 303 294 284 275 267 260 255 250 247 245 243 242 241 240 239 238 239 238 238 237 236 234 232 228 226 226 228 230 233 237 242 246 251
156 138 235 272 284 282 290 17 58 46 50 280 256 198 150 201 211 224 247 200 162 279 287 204 274 293 28 15 30 36 28 26 19 14 12 7 6 6 6 10 15 18 19 17 12 7 359 350 340 332 326 320 315 310 303 295 286 276 267 260 255 252 250 247 245 244 242 242 241 240 239 238 236 235 232 229 227 227 228 229 231 235 239 243 248 252
192 203 202 289 309 304 309 346 9 15 35 231 258 285 216 265 297 317 309 321 254 263 249 220 263 245 69 27 19 23 20 18 12 6 6 3 360 0 4 12 18 19 19 18 17 17 14 8 358 346 335 324 316 310 304 298 291 283 275 268 262 258 255 251 249 248 246 244 243 241 240 237 235 233 231 229 228 229 230 231 234 237 241 245 249 252
204 212 179 245 275 281 287 294 318 358 305 262 319 338 321 244 251 267 289 252 249 262 254 244 262 257 33 23 16 14 9 6 360 357 358 356 356 1 9 15 16 14 12 10 9 9 9 8 6 0 353 342 327 314 303 296 292 288 281 275 269 264 260 257 254 252 249 246 244 242 240 237 235 233 230 229 230 231 232 234 236 239 243 246 248 251
303 270 218 224 240 254 264 268 299 30 321 301 313 313 312 268 232 230 265 252 256 278 268 252 262 280 3 9 5 4 2 360 351 348 351 350 354 6 12 11 10 8 5 4 3 4 3 2 1 360 359 355 346 333 317 303 295 291 286 282 277 271 267 263 259 255 251 248 245 243 240 238 235 233 231 231 232 233 235 237 239 242 244 246 247 250
317 279 252 224 238 254 267 280 319 353 313 297 303 303 308 314 288 237 245 258 270 279 270 274 288 321 15 5 356 352 352 354 347 342 343 342 352 7 8 6 6 3 1 360 360 0 0 358 355 353 353 354 351 344 334 321 310 301 293 287 281 275 270 266 261 257 253 249 247 244 242 239 236 234 233 233 234 236 237 239 241 243 244 244 245 250
168 270 271 232 261 267 275 292 311 315 297 295 310 320 327 329 324 299 272 278 288 283 290 316 335 20 25 1 351 346 344 346 340 334 335 338 353 7 6 4 3 360 357 356 355 356 356 353 350 347 346 347 347 344 339 330 321 314 306 296 286 278 272 267 262 258 254 251 250 247 244 240 237 235 234 234 236 237 239 241 242 243 243 243 245 250
146 275 298 324 285 283 290 305 316 310 310 330 358 2 353 341 344 351 337 334 335 331 351 357 11 47 26 355 340 335 335 336 334 334 337 345 358 5 4 2 359 355 353 351 350 349 348 346 344 343 342 342 341 340 339 333 325 318 312 304 294 286 279 271 265 260 256 254 252 250 245 241 238 236 235 236 237 238 241 242 243 244 243 242 245 248
150 255 334 22 298 288 301 351 21 340 322 6 20 10 356 351 9 19 9 3 0 359 6 7 13 17 1 344 329 327 331 336 338 338 339 345 358 2 0 358 355 352 349 346 345 344 342 341 340 339 339 338 337 333 331 333 329 319 312 306 300 293 285 275 268 264 260 257 253 250 246 242 239 238 237 237 238 239 241 242 244 245 243 243 246 248
187 284 347 28 308 288 310 18 352 323 320 35 33 11 351 352 16 14 11 18 10 357 5 12 16 357 339 331 325 326 333 338 340 338 332 337 356 359 356 357 353 347 343 341 341 340 338 337 336 334 334 333 334 331 326 326 326 321 314 311 305 296 285 275 270 266 262 258 253 250 247 244 241 239 239 239 239 240 241 242 243 244 244 245 248 248
109 339 330 9 313 290 308 338 331 322 319 25 49 13 344 343 2 353 360 30 20 23 19 9 2 339 326 323 323 328 335 337 338 334 327 331 356 357 356 356 348 340 338 338 338 337 335 333 331 330 329 328 329 329 325 321 320 318 314 313 308 297 284 275 270 266 261 257 253 250 248 245 242 241 240 240 240 240 240 240 242 243 246 249 251 249
22 17 274 264 264 286 300 322 328 320 308 272 89 38 348 325 341 341 327 356 27 52 42 349 318 328 329 321 320 325 328 329 330 325 317 322 360 0 354 349 340 334 337 337 335 334 332 331 328 325 325 325 325 326 325 320 317 314 312 311 308 299 286 276 270 265 260 256 253 250 248 246 243 242 241 241 241 240 240 240 242 245 247 250 250 249
318 328 274 224 194 278 302 330 321 302 280 188 149 43 350 293 287 327 306 265 40 36 19 352 335 336 336 326 318 320 323 322 321 315 306 316 1 360 348 338 334 335 338 336 333 331 330 328 327 324 323 322 322 323 323 320 316 313 311 309 308 302 291 277 269 263 259 255 252 249 247 246 244 243 241 241 241 240 240 241 243 246 249 250 250 248
267 280 303 225 209 294 310 321 309 278 138 146 205 2 1 349 332 336 316 150 50 24 4 350 340 337 338 330 322 322 323 319 314 309 305 325 350 348 338 331 330 333 335 333 330 328 327 325 323 321 320 319 319 319 319 319 317 312 309 308 306 303 294 279 268 262 257 253 251 249 247 246 245 243 241 241 241 240 241 243 246 248 250 250 247 245
148 251 356 359 218 343 307 292 295 229 157 30 356 350 352 334 308 313 300 236 62 31 7 353 344 341 340 333 327 327 326 319 308 303 313 328 334 335 333 329 327 328 329 328 326 324 323 322 321 320 319 319 318 318 318 318 316 311 308 307 305 301 293 281 270 262 257 254 252 250 248 246 244 243 242 241 241 241 243 246 249 251 251 249 246 243
35 54 38 352 322 30 334 305 315 286 260 342 334 310 315 304 286 284 274 245 46 22 7 356 345 338 335 330 328 329 327 319 305 307 319 325 327 328 329 327 325 325 326 326 325 324 323 324 324 322 320 319 318 319 320 319 317 313 308 306 304 299 291 281 272 265 260 256 253 250 247 245 244 243 242 243 243 244 246 250 252 253 252 249 247 245
26 27 66 71 359 1 342 312 317 304 262 337 315 313 331 329 317 303 269 229 20 4 355 347 335 332 331 327 328 328 323 310 304 314 320 322 321 321 324 325 324 324 324 325 324 323 324 325 324 321 320 320 321 323 323 322 318 313 309 307 305 296 288 282 276 269 263 258 253 249 247 245 244 243 243 244 244 246 250 253 256 256 254 251 248 247
31 9 37 52 14 351 343 303 290 277 219 317 313 325 341 336 327 312 272 290 355 348 340 339 334 332 332 330 329 327 317 312 313 313 316 317 315 317 323 326 325 323 323 323 323 324 324 323 322 322 323 325 326 325 323 321 317 312 310 309 304 294 288 285 278 268 260 255 250 247 246 245 244 245 245 245 246 249 254 256 257 256 253 250 248 247
36 354 29 51 7 337 327 283 281 244 209 314 331 348 351 342 329 292 295 325 339 333 333 339 337 334 336 333 328 321 311 309 307 308 310 311 313 317 321 324 324 324 323 323 323 323 323 322 322 324 325 326 326 324 323 320 315 311 312 311 304 297 292 285 274 263 256 252 249 247 246 246 246 246 245 245 248 253 256 257 257 255 252 250 248 246
24 329 357 37 313 316 263 255 288 258 123 9 350 350 360 356 323 293 322 325 326 328 334 340 336 334 336 331 321 313 310 308 309 309 310 310 313 317 319 322 324 323 322 323 322 323 324 324 324 325 326 326 326 325 324 322 316 315 318 314 307 300 291 280 270 262 256 251 249 248 248 248 247 245 244 247 252 256 257 256 254 252 250 248 246 243
4 314 325 324 294 273 252 300 300 259 8 7 353 347 6 352 301 304 317 317 323 333 336 332 326 328 331 324 316 313 311 312 314 313 312 312 313 315 318 320 322 323 323 323 321 322 325 325 325 325 325 326 328 328 327 325 322 323 323 316 307 299 289 279 271 263 256 252 251 251 250 248 246 244 248 253 256 257 256 254 251 249 247 245 243 240
181 140 295 297 67 82 253 280 299 286 316 339 347 335 318 307 299 306 320 321 329 334 329 319 317 321 323 319 313 312 313 315 316 314 314 313 311 313 316 318 320 323 324 321 319 322 325 325 325 325 325 328 331 331 330 330 329 329 325 316 307 299 290 281 273 265 260 257 255 252 248 245 245 249 253 257 257 256 254 251 249 246 244 242 240 239
134 111 211 235 211 269 244 252 279 290 300 316 325 317 310 304 296 310 327 328 329 326 319 315 314 314 318 317 312 309 310 313 314 314 313 311 309 311 315 317 320 323 323 320 319 321 324 325 325 324 325 329 333 333 333 334 332 331 327 319 310 302 293 285 278 272 266 260 253 247 245 246 250 255 258 259 258 256 253 250 247 244 242 240 239 240
118 83 49 225 261 294 272 264 277 286 296 312 317 315 311 302 289 309 326 327 321 317 315 313 310 310 313 314 310 307 306 308 310 311 312 311 310 311 313 315 318 322 322 319 318 320 323 324 325 325 325 328 332 333 335 336 335 333 330 324 315 307 298 291 285 278 267 257 250 247 250 253 257 260 262 262 259 256 252 248 246 243 242 241 241 242
167 115 359 231 248 317 303 277 285 298 308 314 316 317 314 299 286 307 322 319 315 317 315 310 307 308 309 307 305 304 304 305 308 309 311 312 312 310 310 314 318 321 321 318 315 317 322 323 324 325 325 325 328 331 332 335 336 336 333 326 319 310 302 295 288 278 267 260 257 257 259 261 263 265 265 263 259 255 250 247 245 243 243 242 243 245
220 230 288 233 228 273 273 280 301 307 303 301 310 319 314 298 291 310 318 314 316 319 314 306 306 307 305 303 302 301 301 303 307 309 310 313 313 310 310 313 317 320 320 316 312 317 321 322 323 324 323 323 325 327 328 330 332 333 332 329 323 314 306 298 288 279 273 269 267 268 268 269 271 271 269 265 261 257 254 252 250 248 248 249 250 251
254 296 277 259 272 270 267 293 315 316 304 301 318 323 317 303 301 312 314 313 315 315 310 307 307 304 303 303 302 300 299 300 305 308 308 312 313 311 311 314 317 320 320 315 313 317 320 320 321 322 321 320 322 323 323 324 324 325 326 326 324 319 311 301 291 283 278 275 275 275 276 278 279 277 273 269 265 262 260 257 256 254 254 254 255 256
261 292 277 288 303 298 302 319 327 323 307 311 319 321 318 313 309 309 309 309 311 311 311 310 307 303 302 302 302 301 298 297 304 307 307 309 312 311 311 315 319 320 318 314 314 317 319 320 321 320 319 319 320 320 320 320 319 319 318 318 317 316 310 303 295 287 282 281 282 282 283 285 284 282 279 275 270 266 263 260 258 257 256 256 256 256
187 108 14 335 300 297 308 317 320 314 301 306 314 315 313 312 309 305 305 307 310 313 313 309 305 302 301 300 301 302 297 296 301 305 305 307 309 307 309 316 319 319 317 316 317 318 319 320 320 319 318 319 320 320 319 319 318 316 313 310 308 305 302 299 295 291 289 288 287 287 287 287 286 283 279 274 270 266 264 261 260 258 258 258 259 258